Regional Weather Roundup
Issued by NWS Charleston, SC

Current Version | Previous Version | Graphics & Text | Print | Product List | Glossary On
Versions: 1 2 3 4 5 6 7 8 9 10 11 12 13 14 15 16 17 18 19 20 21 22 23 24 25 26 27 28 29 30 31 32 33 34 35 36 37 38 39 40 41 42 43 44 45 46 47 48 49 50
000
ASUS42 KCHS 230913
RWRCHS

REGIONAL WEATHER ROUNDUP
NATIONAL WEATHER SERVICE CHARLESTON SC
500 AM EDT SAT JUL 23 2016

NOTE: "FAIR" INDICATES FEW OR NO CLOUDS BELOW 12,000 FEET WITH NO
SIGNIFICANT WEATHER AND/OR OBSTRUCTIONS TO VISIBILITY.

NOT ALL STATIONS ARE QUALITY CONTROLLED. USE DATA WITH CAUTION...
ESPECIALLY DEWPOINT OBSERVATIONS.

SCZ027-030-031-034>040-042>050-231000-
...SOUTHEAST SOUTH CAROLINA...

CITY           SKY/WX    TMP DP  RH WIND       PRES   REMARKS
N CHARLESTON   CLEAR     78  75  90 W5        30.00F
WATERFRONT PRK   N/A     81  77  88 CALM      29.98F
MOUNT PLEASANT FAIR      75  73  94 CALM      30.01R
JOHNS ISLAND   FAIR      77  75  94 CALM      30.00F
PINOPOLIS        N/A     79  77  94 SW6       29.94S
MONCKS CORNER  FAIR      73  72  94 CALM      30.01S
SUMMERVILLE    FAIR      73  73 100 CALM      30.02S
BEAUFORT MCAS  CLEAR     78  74  87 W5        30.00F
BEAUFORT ARPT  NOT AVBL
HILTON HEAD IS CLEAR     81  77  89 SW3       30.01F
WALTERBORO     SUNNY     77  77 100 CALM      30.01F
ALLENDALE      FAIR      75  73  94 CALM      30.00S

...SOUTHERN MIDLANDS AND PEE DEE...

CITY           SKY/WX    TMP DP  RH WIND       PRES   REMARKS
GEORGETOWN     FAIR      73  72  94 CALM      30.01F
KINGSTREE      FAIR      72  70  94 CALM      30.00F
ORANGEBURG     CLEAR     75  73  93 CALM      30.01F
BARNWELL       NOT AVBL
AIKEN          FAIR      73  70  88 SW3       30.05S
MANNING        FAIR      77  73  88 SW3       30.00F
COLUMBIA       CLEAR     79  73  82 CALM      30.00S
SUMTER         CLEAR     77  73  88 S7        29.98F
FLORENCE       CLEAR     77  74  90 SW7       29.99F
MYRTLE BEACH   CLOUDY    81  66  61 SW5       30.02S
N MYRTLE BEACH PTCLDY    80  72  76 SW6       29.99F

$$

GAZ063-065-086>088-099>101-113>116-118-119-134>141-150-231000-
...SOUTHEAST GEORGIA...

CITY           SKY/WX    TMP DP  RH WIND       PRES   REMARKS
SAVANNAH ARPT  CLEAR     76  72  87 W3        30.01F
HUNTER AAF     CLEAR     76  76 100 CALM      29.98F
FORT STEWART   CLEAR     74  72  93 CALM      29.99F
STATESBORO     CLEAR     74  73  96 CALM      30.01S
SYLVANIA       NOT AVBL
CLAXTON        FAIR      72  72  99 CALM      30.01F

...CSRA...CENTRAL AND FAR SOUTHEAST GEORGIA...

CITY           SKY/WX    TMP DP  RH WIND       PRES   REMARKS
THOMSON        CLEAR     76  75  96 CALM      30.06R
AUGUSTA-BUSH   CLEAR     73  71  93 CALM      30.00S
AUGUSTA-DANIEL CLEAR     79  71  76 SW3       30.02S
SWAINSBORO     FAIR      73  70  88 CALM      30.01F
VIDALIA        CLEAR     73  70  88 CALM      30.01F
EASTMAN        FAIR      76  76 100 CALM      30.03F
HAZLEHURST     FAIR      76  74  95 CALM      30.01S
ALMA           CLEAR     72  71  97 CALM      30.01F
WAYCROSS       PTCLDY    76  75  98 CALM      30.01F
JESUP          FAIR      72  72 100 CALM      30.01F
BAXLEY         FAIR      73  73 100 CALM      30.01S
BRUNSWICK      CLEAR     73  73 100 CALM      30.02S
SAINT SIMONS   CLEAR     77  72  84 W3        30.01F

$$

SCZ027-028-034-036>038-045-046-048>050-GAZ119-141-231000-
...LAKE AND SUPPLEMENTAL COASTAL OBSERVATIONS...

STATION/POSITION TIME  TEMP    WIND        PRES    WAVE   SWELL
                       AIR SEA DIR/SP/G            HT/PER HT/PER/DIR
                 (UTC) (F)     (DEG/KT/KT) (MB)    (FT/S) (FT/S/D)
WINYAH BAY       NOT AVBL
LAKE MURRAY      0800   82     250/  7/ 11 1015.2F
ACE BASIN NERRS  NOT AVBL
FORT PULASKI     0800   81 88  230/  3/  4 1016.7F
SAPELO ISLAND    0800   81     240/  7     1017.0S

$$

ANZ835-935-AMZ111-154-330-350-352-354-370-450-454-472-231000-
...C-MAN AND BUOY OBSERVATIONS...

STATION/POSITION TIME  TEMP    WIND        PRES    WAVE   SWELL
                       AIR SEA DIR/SP/G            HT/PER HT/PER/DIR
                 (UTC) (F)     (DEG/KT/KT) (MB)    (FT/S) (FT/S/D)
BUOY 41004       0850   84 86  220/ 10/ 12 1015.9R   3/ 9   2/140/ 9
BUOY 41008       0850   84 86  250/  8/ 10 1016.1F   2/ 9   2/ 70/ 9
FOLLY BEACH CMAN 0900   81     280/  2/  3 1016.1S
CAPERS NEARSHORE 0808   84 84  250/ 12/ 16 1015.9F
FRIPP NEARSHORE  0808   85 86  230/ 12/ 16 1015.3F


STATION/POSITION TIME  TEMP    WIND        PRES    WAVE   SWELL
                       AIR SEA DIR/SP/G            HT/PER HT/PER/DIR
                 (UTC) (F)     (DEG/KT/KT) (MB)    (FT/S) (FT/S/D)
5E ST. MARYS GA  0801      86                N/A     2/ 9
FRYING PAN BUOY  0800   84 86  240/  8/ 10 1016.0F
BUOY 41025       0850   83 85  230/ 12/ 14 1016.0F   3/ 8   2/130/ 8
CAPE LOOKOUT NC  0900   81     230/  5/  7 1015.8F
BUOY 41002       0850   81 84  280/  4/  6 1016.9S   3/ 8   3/100/ 8
BUOY 41010       0820   84 86  320/  4/  4 1016.5F
ST AUGUSTINE FL  0900   78 86  260/  4/  5 1017.3F


$$




USA.gov is the U.S. government's official web portal to all federal, state and local government web resources and services.